Location: ???
(60.6398°N, 46.9067°E)
Time: 18:25:18
(UTC+00:00)

ATLAS 2AS CENTAUR R/B - Pass Details

Date: 08 December 2019
Orbit: 927 x 1285 km, 63.7° (Epoch: 06 January)

Event Time Altitude Azimuth Distance (km) Brightness Sun altitude
Rises 12:51:12 0° 196° (SSW) 4,219 6.7 -7.0°
Reaches altitude 10° 12:54:11 10° 189° (S) 3,272 5.9 -7.3°
Maximum altitude 13:01:25 39° 124° (SE) 1,829 3.8 -8.1°
Enters shadow 13:08:30 10° 60° (ENE) 3,223 4.5 -8.8°
